Tracking 18784 objects as of 16-August-2017
HD Live streaming from Space Station
objects crossing your sky now

COSMOS 970 DEB

Track COSMOS 970 DEB now!
10-day predictions


NORAD ID: 10563
Int'l Code: 1977-121E
Perigee: 877.3 km
Apogee: 1,020.5 km
Inclination: 65.8 °
Period: 103.9 minutes
Semi major axis: 7319 km
RCS: 0.0231 m2 (small)
Launch date: December 21, 1977
Source: Commonwealth of Independent States (former USSR) (CIS)
Launch site: TYURATAM MISSILE AND SPACE COMPLEX (TTMTR)

Note: This is SATELLITE DEBRIS
Your satellite tracking list
Your tracking list is empty





NASA's NSSDC Master Catalog

Two Line Element Set (TLE):
1 10563U 77121E   17227.35788572  .00000214  00000-0  24677-3 0  9993
2 10563  65.8472 229.4539 0097820 137.6680 223.1991 13.86256599989535
Source of the keplerian elements: AFSPC